RH
10 9 6 4 6 8 13 15 14 16 14 11 9 7 12 23 31 38 48 52 48 47 44 41 27 15 12 10 9 8 8 7 6 5 4 5 6 7 10 14 17 19 20 19 17 22 24 25 28
14 11 8 9 13 15 17 18 16 15 13 12 8 13 19 26 36 39 35 43 43 35 39 35 30 15 11 10 10 9 8 7 6 6 5 5 5 7 9 14 17 18 18 14 15 18 16 15 18
16 15 12 14 20 20 18 16 15 14 13 13 14 16 20 25 25 24 24 25 31 29 32 32 28 14 11 12 11 10 9 8 7 6 6 5 5 7 8 11 13 15 14 14 13 14 19 25 22
20 17 16 21 28 25 24 15 14 15 13 17 16 19 27 26 26 24 23 23 31 30 29 31 26 13 12 13 12 11 11 10 9 8 7 6 6 6 8 10 12 14 13 14 14 20 23 18 20
18 17 23 28 27 21 15 14 13 18 18 16 17 26 24 29 24 26 29 21 21 29 30 28 22 13 14 15 14 13 12 11 10 9 8 7 7 7 7 8 11 15 15 15 19 24 19 19 21
20 17 21 24 27 24 18 19 17 20 21 20 18 27 29 24 32 32 30 28 22 24 24 35 31 14 16 17 16 16 14 13 12 11 10 9 8 8 8 9 11 12 14 15 22 22 20 22 19
22 19 24 23 28 27 28 27 25 28 27 24 26 29 32 34 32 32 31 29 26 22 22 29 38 21 15 19 19 19 18 16 14 14 12 10 10 10 10 10 11 13 15 16 21 20 23 26 24
22 24 25 28 28 28 29 28 27 28 28 31 29 29 30 30 30 30 30 30 31 30 24 20 27 39 29 16 19 20 21 19 17 17 14 12 12 13 13 12 12 13 15 16 22 22 27 31 31
24 23 22 30 31 30 29 29 27 26 28 29 28 27 27 27 26 26 28 29 28 26 24 23 20 28 37 36 17 17 20 20 19 18 17 16 16 18 17 14 13 14 15 16 20 23 29 32 31
30 25 26 30 34 32 30 29 29 29 29 27 25 24 26 29 28 26 26 27 29 28 27 23 20 20 35 42 46 28 17 18 20 19 18 18 18 20 19 18 16 16 15 16 20 24 29 30 31
31 25 28 31 32 29 28 28 26 28 27 24 23 24 24 26 27 28 28 28 27 29 33 33 31 42 56 37 52 61 44 22 17 19 18 18 18 19 21 20 19 19 17 17 18 23 29 30 31
27 27 26 26 27 27 27 27 24 20 19 20 23 23 24 24 24 24 24 21 25 31 37 35 39 37 44 56 50 62 58 60 28 18 18 19 18 18 19 21 20 20 21 20 20 21 24 26 28
30 30 29 29 29 27 24 24 19 19 20 22 22 22 21 20 18 17 18 23 29 35 39 41 42 40 38 57 66 52 50 66 67 30 19 18 19 18 18 19 20 21 21 22 22 22 23 24 26
28 28 28 28 27 27 22 19 19 18 21 23 21 22 21 18 18 18 20 27 31 31 38 43 45 46 45 40 55 70 62 58 63 72 32 19 18 19 19 19 20 20 21 22 23 23 24 25 25
28 26 26 25 24 26 21 20 18 20 25 26 24 22 20 19 19 20 20 20 19 22 34 39 42 47 49 48 47 45 67 80 60 65 73 33 19 19 19 20 20 20 21 23 23 24 25 26 28
26 26 24 21 19 20 22 20 21 23 23 19 18 17 16 16 16 17 16 16 17 20 20 26 32 38 41 50 52 50 49 53 60 67 71 75 46 22 22 22 22 22 22 26 26 25 33 29 29
24 23 22 22 19 20 21 20 21 15 22 20 16 15 14 14 16 17 17 17 17 21 23 15 12 13 18 31 44 53 55 54 52 42 44 73 72 71 56 42 35 26 25 26 27 29 36 37 33
23 23 22 21 20 20 18 17 16 17 14 13 12 11 13 14 20 22 20 20 28 25 14 13 10 8 7 6 6 20 40 50 51 49 47 49 66 74 57 70 58 49 44 37 39 41 49 43 39
27 22 20 17 14 13 14 15 12 12 12 13 15 14 14 16 19 18 19 25 27 19 21 18 15 12 10 8 4 4 5 8 31 38 43 52 72 86 80 73 63 69 57 58 50 57 65 56 51
24 21 22 22 18 16 14 13 13 13 12 15 19 21 21 25 25 21 19 22 23 20 21 20 17 13 11 8 6 5 5 6 5 12 30 37 41 66 79 71 69 75 63 70 69 55 61 66 61
22 22 22 20 22 19 16 15 15 15 12 16 23 27 29 28 31 32 25 22 25 25 27 22 17 16 16 13 8 5 4 5 8 10 7 12 34 37 65 47 53 85 78 75 62 77 77 65 65
20 18 17 16 17 17 16 15 13 12 14 22 34 38 38 36 40 39 34 29 31 34 25 21 22 20 16 8 5 4 4 3 4 4 5 10 10 52 36 36 72 84 84 82 74 72 87 97 86
19 18 18 17 17 16 12 14 14 13 17 33 46 48 48 45 42 39 41 42 37 27 23 14 8 6 6 6 7 6 6 4 4 10 9 7 12 12 37 60 44 68 87 79 76 78 89 99 100
20 19 18 18 18 18 9 8 26 40 24 33 48 62 59 55 52 50 41 32 25 20 14 11 9 8 7 10 11 14 13 12 11 11 14 18 17 17 16 15 50 42 43 76 71 62 95 94 99
21 20 18 25 28 28 22 22 24 31 32 47 62 72 67 61 48 38 31 24 25 20 13 12 11 12 11 13 15 16 18 19 18 22 24 16 17 22 26 22 14 32 47 52 54 56 81 88 78
22 20 18 37 45 36 20 52 45 46 53 74 77 72 60 50 42 33 30 30 22 17 15 13 16 16 16 15 17 20 24 29 31 33 36 38 32 30 31 31 25 17 15 42 60 48 48 56 89
22 23 23 26 28 32 25 63 63 76 73 69 70 63 56 52 44 36 36 28 21 17 19 19 22 20 23 26 26 28 39 43 46 52 55 60 58 54 47 46 36 28 24 12 69 98 72 47 62
20 23 26 24 41 48 35 56 60 62 62 65 60 63 59 53 40 40 34 26 20 22 24 27 33 38 42 42 42 42 37 51 56 64 66 66 68 70 82 99 97 77 51 87 16 50 77 60 56
19 22 24 28 29 67 58 60 59 56 55 70 75 66 60 44 44 41 30 22 25 32 37 44 48 47 44 41 37 35 43 50 65 75 76 78 79 85 92 100 100 100 95 96 72 28 43 61 53
31 30 27 24 26 33 43 41 66 75 73 67 63 64 49 50 49 37 29 32 38 43 46 41 38 36 36 36 37 42 43 52 80 88 92 90 89 98 99 94 98 99 98 96 86 79 27 40 37
Wind_Speed
2 1 2 3 2 2 8 4 5 8 5 9 3 0 1 2 3 2 5 7 5 7 12 11 11 9 8 7 5 5 6 8 7 5 5 4 6 7 8 7 6 5 4 3 2 2 3 4 4
3 1 1 4 1 8 12 12 9 9 8 10 2 1 3 4 10 7 6 5 6 9 15 14 13 11 10 9 6 4 5 7 9 7 6 5 5 5 7 7 6 5 4 2 1 1 2 4 6
2 2 2 2 2 8 6 7 7 8 6 4 2 6 4 2 4 9 11 7 10 10 14 15 13 12 11 11 8 6 5 6 8 8 7 7 6 5 5 5 5 3 3 1 1 1 2 5 6
3 2 3 1 8 17 14 5 2 5 9 7 5 8 3 1 4 10 11 7 7 12 15 15 13 13 13 12 11 8 7 6 8 8 7 7 7 7 7 7 7 5 4 3 2 1 1 4 6
3 4 6 2 8 13 11 7 6 7 8 5 6 4 3 0 7 11 14 13 9 9 12 16 14 14 15 14 13 11 9 9 9 9 8 7 8 8 8 8 8 7 6 5 4 2 1 3 5
6 8 5 1 8 7 3 3 7 7 9 5 7 2 5 4 10 12 15 16 12 11 13 13 17 16 16 16 15 14 13 11 10 11 10 9 8 8 9 9 8 7 6 4 2 1 1 3 5
9 11 7 6 4 4 5 2 3 8 5 5 6 2 4 7 13 16 15 18 18 16 16 17 17 20 20 20 18 16 15 14 13 13 13 11 10 10 10 9 9 8 7 6 4 2 1 2 5
11 11 8 2 5 9 7 4 5 3 3 2 7 7 10 12 14 22 23 21 16 17 16 18 20 21 23 23 22 20 19 17 16 15 15 14 11 10 11 11 10 9 8 7 5 4 3 2 4
12 12 10 6 2 5 3 5 9 10 4 2 4 11 16 19 23 25 26 25 24 28 27 25 21 20 22 25 25 25 23 21 19 18 18 16 13 12 12 12 11 11 9 9 7 6 5 4 4
15 15 10 8 8 13 13 9 12 11 12 10 10 13 16 21 25 27 29 27 27 28 27 31 29 27 19 20 27 26 27 26 24 22 21 19 18 15 14 13 12 12 11 10 9 9 8 7 6
17 15 9 10 14 17 19 18 16 17 18 18 19 17 22 26 26 27 29 30 32 31 29 27 23 24 24 24 19 23 28 29 29 27 26 25 22 20 18 16 14 13 12 11 11 12 11 11 9
17 14 12 12 18 22 22 22 19 13 13 17 18 19 28 29 31 33 35 32 25 29 30 32 30 27 26 26 23 24 30 34 32 31 31 29 27 25 24 20 18 17 15 15 14 14 14 14 13
17 13 17 20 22 22 21 20 14 9 10 10 17 24 27 27 27 27 25 23 23 26 29 30 31 33 30 29 28 28 31 30 32 34 32 32 31 30 29 27 24 21 20 19 18 18 18 17 16
18 19 20 23 23 22 19 12 9 7 4 10 21 22 24 22 22 21 20 21 22 23 24 25 26 27 29 30 30 31 32 32 33 32 36 34 34 34 34 31 30 28 26 24 23 22 22 21 20
19 20 23 24 23 23 14 8 8 11 5 17 21 23 22 23 25 25 24 24 24 24 28 29 27 26 28 31 33 36 34 35 33 30 33 38 37 38 38 36 34 33 32 31 30 28 27 27 25
15 17 17 5 10 19 11 7 10 8 7 19 21 23 26 27 27 28 28 29 29 28 27 33 37 37 35 32 34 38 40 41 40 33 32 34 38 40 40 38 38 37 37 36 36 32 31 30 31
11 9 8 5 7 15 15 13 12 9 17 24 26 29 31 30 31 30 31 32 32 30 29 27 28 32 36 42 41 38 40 43 46 43 35 37 39 40 43 39 38 38 40 41 39 38 36 34 34
5 9 7 5 10 13 13 13 12 20 19 27 31 34 34 34 33 31 31 33 30 30 27 26 26 29 32 34 36 43 46 46 46 47 42 37 40 42 48 48 48 45 45 44 43 43 41 40 35
10 10 11 8 5 8 13 12 14 22 26 27 30 33 36 37 36 35 35 33 31 30 30 32 34 40 45 46 39 39 40 40 44 46 47 44 42 44 45 54 57 54 53 51 49 50 48 45 41
14 13 15 18 13 11 11 14 14 22 28 27 30 35 36 36 36 36 38 37 36 36 38 37 40 45 48 45 45 45 41 37 41 45 45 47 48 49 50 52 57 61 59 55 55 56 54 51 48
16 18 21 22 27 25 19 18 19 27 30 32 34 36 36 37 36 35 36 40 39 40 41 43 47 48 50 52 50 47 45 44 41 39 46 48 51 52 56 56 59 62 63 63 65 58 58 57 55
20 20 20 22 20 15 14 6 16 21 29 33 34 35 35 36 33 31 33 36 38 39 43 45 47 52 55 53 47 45 47 48 46 46 41 43 49 53 56 56 56 62 61 59 63 63 63 60 62
19 18 17 18 19 19 19 12 8 22 30 33 31 30 28 28 28 28 27 30 34 39 40 40 41 43 45 44 45 45 45 48 51 50 48 47 44 49 59 60 61 62 61 60 57 63 71 62 73
19 17 16 18 20 8 18 20 12 23 29 35 32 23 20 19 20 19 22 26 29 33 38 42 44 45 47 45 45 46 48 50 50 51 53 52 50 48 50 62 67 67 66 61 60 63 54 60 54
19 14 3 3 3 7 2 11 13 16 27 32 25 18 16 15 18 23 27 29 32 36 38 42 46 46 44 43 44 45 47 47 49 49 49 53 56 54 49 51 60 71 70 67 65 62 56 50 52
18 19 11 6 3 4 5 8 8 18 20 21 18 13 10 14 22 28 31 35 40 42 43 46 49 47 45 45 47 48 47 47 46 50 54 53 53 54 51 46 51 57 71 71 66 63 59 54 48
15 16 15 5 10 4 5 5 8 17 19 21 21 17 19 22 29 32 37 42 44 46 47 48 47 45 45 45 45 44 44 43 45 52 49 47 46 45 48 43 43 48 54 68 67 60 58 55 55
19 15 8 11 3 4 6 8 10 21 24 24 20 19 20 25 31 34 40 43 47 48 48 46 44 41 39 38 39 40 37 40 47 47 42 42 42 40 39 36 37 37 37 32 61 67 56 51 50
20 16 12 10 9 5 2 4 9 13 15 17 19 18 21 29 29 36 39 43 44 42 41 39 38 36 36 36 36 37 35 40 45 42 41 41 37 35 31 32 33 37 38 40 35 55 61 58 54
20 23 24 16 8 11 6 11 12 14 17 20 23 20 26 28 34 37 40 40 36 34 32 31 32 33 33 34 34 33 37 37 41 37 37 38 34 28 30 31 33 34 28 33 34 41 54 54 55
Wind_Direction
258 220 283 315 331 340 343 331 267 153 105 83 74 298 220 283 58 274 183 176 197 222 225 229 237 251 266 280 312 339 349 332 326 320 295 242 191 178 178 181 183 191 199 215 233 286 314 309 305
275 306 291 318 359 44 38 129 127 157 145 117 112 40 117 3 14 6 325 310 283 234 226 221 230 251 261 266 283 320 334 332 317 313 293 267 243 207 192 196 194 200 210 219 229 311 327 327 324
320 343 292 217 89 41 39 93 108 123 127 181 228 200 199 105 337 326 316 336 270 225 223 224 231 248 254 260 270 286 307 316 312 307 299 288 261 234 222 225 221 220 228 258 349 57 5 323 321
283 218 260 97 14 347 315 175 120 148 147 187 197 176 138 150 294 297 320 327 295 240 229 225 236 247 250 253 261 269 286 297 304 298 300 296 279 262 232 223 219 215 215 205 183 137 355 315 323
238 247 227 35 18 36 118 131 155 176 134 178 217 152 229 80 276 290 303 309 299 254 244 235 237 245 250 254 258 263 273 284 291 291 293 290 282 274 266 256 240 224 216 207 195 174 198 305 314
237 239 232 179 35 25 147 168 199 158 142 150 298 127 119 249 277 277 291 298 296 267 246 239 250 248 249 255 259 262 266 271 276 285 287 284 281 275 267 261 257 253 250 248 250 282 323 328 320
225 228 226 217 57 81 86 250 110 111 140 167 156 50 124 196 271 283 281 284 285 280 267 261 245 244 246 249 254 260 267 269 271 277 281 282 282 280 278 268 261 256 249 245 243 250 284 323 324
219 230 236 185 357 127 114 240 193 197 26 123 187 243 256 247 251 278 288 275 272 268 266 263 267 254 250 248 252 255 260 265 265 269 273 275 275 282 286 283 273 265 257 254 252 235 231 270 311
230 241 245 167 139 294 245 213 244 258 246 243 224 250 263 267 262 262 273 285 283 272 262 250 249 260 257 252 251 255 256 260 261 261 264 271 275 282 280 278 279 275 268 261 255 241 240 261 294
214 236 245 223 291 304 299 270 254 249 246 239 231 246 253 257 260 265 271 276 281 274 263 261 254 244 247 256 251 251 257 255 257 258 258 260 264 271 273 274 272 273 269 260 250 242 240 251 269
220 241 233 231 276 289 292 288 286 270 266 262 238 242 252 253 259 264 267 273 275 268 266 267 255 258 252 247 245 258 254 257 256 253 256 255 257 264 267 268 267 266 262 258 251 244 242 250 260
233 238 250 265 271 268 275 281 295 291 266 256 252 269 261 259 260 267 274 274 261 255 255 262 264 258 255 251 245 247 246 256 250 254 251 253 254 255 262 264 261 258 256 253 252 250 248 252 258
228 237 239 246 257 266 272 278 296 291 255 265 271 266 271 272 270 265 258 254 253 259 265 265 268 269 266 259 253 248 245 247 253 248 247 250 250 251 254 257 258 254 252 251 250 251 252 255 259
232 238 238 245 256 266 266 271 292 264 233 238 256 260 271 272 273 266 260 260 265 264 265 270 273 271 270 265 260 257 256 255 251 249 247 243 249 249 250 250 252 253 251 248 247 247 249 252 257
267 267 253 260 262 260 249 251 272 225 215 255 266 271 272 270 268 268 269 274 276 274 266 267 270 279 275 273 271 268 267 263 259 255 248 246 245 250 248 246 247 248 251 250 247 246 247 249 251
261 267 281 258 232 215 209 142 123 156 216 254 260 265 270 267 263 267 276 280 285 285 282 277 274 270 270 273 272 271 272 273 269 267 265 253 244 244 251 249 244 246 247 249 249 246 248 250 252
246 254 264 269 262 231 193 189 175 198 202 239 257 264 269 265 264 267 271 278 282 289 294 293 291 286 277 268 267 268 269 270 273 271 265 263 252 244 248 251 252 250 249 247 247 245 249 250 253
203 236 241 221 199 214 220 229 233 221 239 247 254 261 264 263 261 263 270 277 284 297 302 311 310 310 308 297 284 272 266 267 271 272 267 259 257 253 243 244 243 249 254 252 248 250 249 249 250
256 244 241 192 212 254 250 234 238 261 267 263 257 256 261 260 261 267 273 278 287 300 306 309 311 316 313 310 297 280 275 267 264 270 268 263 256 254 255 248 240 241 249 251 253 253 251 249 249
239 245 251 264 268 266 237 218 219 242 262 262 252 255 253 253 257 260 269 277 284 296 299 307 311 314 315 312 308 302 294 283 271 259 262 265 261 255 255 254 252 242 240 246 250 251 252 251 250
244 253 265 272 273 280 271 262 252 255 260 251 247 249 251 254 258 262 266 275 286 297 303 310 314 318 318 315 309 302 299 294 288 281 268 257 260 258 255 255 254 243 243 245 244 249 250 251 251
255 262 264 267 271 270 277 289 241 248 259 240 238 237 241 248 255 263 270 277 290 299 309 316 321 321 320 317 311 308 305 299 294 286 276 272 261 253 255 255 247 239 245 246 244 246 248 249 246
257 262 263 265 274 279 270 259 258 231 244 238 233 236 242 250 261 272 280 288 300 307 318 323 325 322 317 312 307 308 306 306 300 296 290 281 272 262 249 246 249 248 246 245 248 247 250 255 259
257 257 262 270 273 264 257 229 215 211 237 239 236 236 244 256 269 288 309 315 319 325 325 324 323 321 318 312 308 309 309 305 301 296 293 293 284 273 262 251 245 246 250 249 249 253 254 255 262
244 245 297 288 197 230 123 205 241 227 237 243 240 243 254 280 309 319 320 321 324 326 322 317 316 314 310 310 308 309 309 305 302 297 293 291 291 283 273 262 253 246 246 246 249 250 252 254 260
246 238 207 232 217 274 275 195 230 232 237 235 243 257 295 313 322 328 325 326 330 327 323 320 319 314 309 309 311 311 309 305 303 300 301 296 289 283 277 268 259 254 245 245 247 248 249 252 256
219 215 223 255 276 283 239 209 217 213 233 245 256 274 303 323 332 326 327 330 328 326 323 319 315 313 310 308 307 308 309 308 306 306 300 295 290 283 278 275 258 253 250 244 240 244 245 249 252
215 207 190 212 214 235 249 218 215 216 233 244 263 292 310 326 324 322 326 326 327 324 321 320 317 315 315 314 313 313 313 316 316 310 302 304 297 289 279 275 268 262 251 267 240 239 243 242 246
212 212 216 222 218 201 240 235 239 234 249 266 279 289 308 317 314 323 323 325 324 324 323 322 321 322 322 322 321 319 319 320 321 314 314 312 302 293 286 271 275 269 256 253 246 236 238 241 244
246 243 244 226 224 221 246 256 200 223 247 260 270 287 311 312 317 322 327 327 325 322 321 319 320 324 326 323 327 325 324 323 328 323 319 313 306 292 293 284 266 258 273 260 253 244 231 237 242